SCP
0 0 0 0 0 0 0 0 0 0 0 0 0 0 0 0 0 0 0 0 0 0 0 0 0 0 0 0 0 0 0 0 0 0 0 0 0 0 0 0 0 0 0 0
0 0 0 0 0 0 0 0 0 0 0 0 0 0 0 0 0 0 0 0 0 0 0 0 0 0 0 0 0 0 0 0 0 0 0 0 0 0 0 0 0 0 0 0
0 0 0 0 0 0 0 0 0 0 0 0 0 0 0 0 0 0 0 0 0 0 0 0 0 0 0 0 0 0 0 0 0 0 0 0 0 0 0 0 0 0 0 0
0 0 0 0 0 0 0 0 0 0 0 0 0 0 0 0 0 0 0 0 0 0 0 0 0 0 0 0 0 0 0 0 0 0 0 0 0 0 0 0 0 0 0 0
0 0 0 0 0 0 0 0 0 0 0 0 0 0 0 0 0 0 0 0 0 0 0 0 0 0 0 0 0 0 0 0 0 0 0 0 0 0 0 0 0 0 0 0
0 0 0 0 0 0 0 0 0 0 0 0 0 0 0 0 0 0 0 0 0 0 0 0 0 0 0 0 0 0 0 0 0 0 0 0 0 0 0 0 0 0 0 0
0 0 0 0 0 0 0 0 0 0 0 0 0 0 0 0 0 0 0 0 0 0 0 0 0 0 0 0 0 0 0 0 0 0 0 0 0 0 0 0 0 0 0 0
0 0 0 0 0 0 0 0 0 0 0 0 0 0 0 0 0 0 0 0 0 0 0 0 0 0 0 0 0 0 0 0 0 0 0 0 0 0 0 0 0 0 0 0
0 0 0 0 0 0 0 0 0 0 0 0 0 0 0 0 0 0 0 0 0 0 0 0 0 0 0 0 0 0 0 0 0 0 0 0 0 0 0 0 0 0 0 0
0 0 0 0 0 0 0 0 0 0 0 0 0 0 0 0 0 0 0 0 0 0 0 0 0 0 0 0 0 0 0 0 0 0 0 0 0 0 0 0 0 0 0 0
0 0 0 0 0 0 0 0 0 0 0 0 0 0 0 0 0 0 0 0 0 0 0 0 0 0 0 0 0 0 0 0 0 0 0 0 0 0 0 0 0 0 0 0
0 0 0 0 0 0 0 0 0 0 0 0 0 0 0 0 0 0 0 0 0 0 0 0 0 0 0 0 0 0 0 0 0 0 0 0 0 0 0 0 0 0 0 0
0 0 0 0 0 0 0 0 0 0 0 0 0 0 0 0 0 0 0 0 0 0 0 0 0 0 0 0 0 0 0 0 0 0 0 0 0 0 0 0 0 0 0 0
0 0 0 0 0 0 0 0 0 0 0 0 0 0 0 0 0 0 0 0 0 0 0 0 0 0 0 0 0 0 0 0 0 0 0 0 0 0 0 0 0 0 0 0
0 0 0 0 0 0 0 0 0 0 0 0 0 0 0 0 0 0 0 0 0 0 0 0 0 0 0 0 0 0 0 0 0 0 0 0 0 0 0 0 0 0 0 0
0 0 0 0 0 0 0 0 0 0 0 0 0 0 0 0 0 0 0 0 0 0 0 0 0 0 0 0 0 0 0 0 0 0 0 0 0 0 0 0 0 0 0 0
0 0 0 0 0 0 0 0 0 0 0 0 0 0 0 0 0 0 0 0 0 0 0 0 0 0 0 0 0 0 0 0 0 0 0 0 0 0 0 0 0 0 0 0
0 0 0 0 0 0 0 0 0 0 0 0 0 0 0 0 0 0 0 0 0 0 0 0 0 0 0 0 0 0 0 0 0 0 0 0 0 0 0 0 0 0 0 0
0 0 0 0 0 0 0 0 0 0 0 0 0 0 0 0 0 0 0 0 0 0 0 0 0 0 0 0 0 0 0 0 0 0 0 0 0 0 0 0 0 0 0 0
0 0 0 0 0 0 0 0 0 0 0 0 0 0 0 0 0 0 0 0 0 0 0 0 0 0 0 0 0 0 0 0 0 0 0 0 0 0 0 0 0 0 0 0
0 0 0 0 0 0 0 0 0 0 0 0 0 0 0 0 0 0 0 0 0 0 0 0 0 0 0 0 0 0 0 0 0 0 0 0 0 0 0 0 0 0 0 0
0 0 0 0 0 0 0 0 0 0 0 0 0 0 0 0 0 0 0 0 0 0 0 0 0 0 0 0 0 0 0 0 0 0 0 0 0 0 0 0 0 0 0 0
0 0 0 0 0 0 0 0 0 0 0 0 0 0 0 0 0 0 0 0 0 0 0 0 0 0 0 0 0 0 0 0 0 0 0 0 0 0 0 0 0 0 0 0
0 0 0 0 0 0 0 0 0 0 0 0 0 0 0 0 0 0 0 0 0 0 0 0 0 0 0 0 0 0 0 0 0 0 0 0 0 0 0 0 0 0 0 0
0 0 0 0 0 0 0 0 0 0 0 0 0 0 0 0 0 0 0 0 0 0 0 0 0 0 0 0 0 0 0 0 0 0 0 0 0 0 0 0 0 0 0 0
0 0 0 0 0 0 0 0 0 0 0 0 0 0 0 0 0 0 0 0 0 0 0 0 0 0 0 0 0 0 0 0 0 0 0 0 0 0 0 0 0 0 0 0
0 0 0 0 0 0 0 0 0 0 0 0 0 0 0 0 0 0 0 0 0 0 0 0 0 0 0 0 0 0 0 0 0 0 0 0 0 0 0 0 0 0 0 0
Wind_Speed
8 6 7 9 9 10 12 11 11 10 10 8 6 5 5 4 4 4 4 3 3 3 3 3 4 4 3 3 3 2 2 2 1 2 2 2 2 3 3 2 3 3 3 3
8 6 8 10 10 10 11 11 12 12 11 7 6 5 5 5 4 5 4 4 4 4 3 4 4 3 3 3 3 3 3 2 1 1 2 2 2 2 3 2 3 3 3 3
7 5 8 10 9 9 9 9 9 10 8 5 5 5 5 5 5 5 5 4 4 4 4 3 3 3 3 3 3 3 3 2 2 1 2 2 2 2 3 3 2 3 3 3
6 6 9 2 1 5 8 9 9 9 7 6 6 6 5 4 5 5 4 4 4 4 3 3 3 3 3 3 3 3 3 3 2 2 2 2 2 2 3 3 2 2 3 3
5 7 8 3 3 4 7 9 8 9 8 7 4 5 4 3 4 5 5 4 3 3 3 3 3 3 3 3 3 3 3 3 3 2 2 2 2 2 2 2 2 3 3 3
6 8 7 2 1 2 6 8 4 7 7 6 4 6 4 2 4 4 3 3 2 2 3 3 3 3 3 3 3 3 3 3 2 2 2 2 2 2 2 2 2 2 2 3
9 9 7 1 0 3 6 3 3 4 5 6 7 6 4 2 3 3 3 3 3 3 3 3 3 3 3 3 2 2 2 2 2 2 2 2 2 2 2 2 2 3 3 3
7 8 5 2 2 5 5 6 5 5 5 6 6 5 4 3 3 3 2 2 3 3 3 3 3 4 3 2 1 1 2 2 2 2 2 2 3 3 3 3 3 3 3 3
6 5 4 3 6 6 7 7 6 5 5 5 5 5 4 3 3 3 2 2 3 3 3 3 3 3 3 2 1 2 2 2 3 3 3 3 3 3 3 3 3 3 2 3
7 8 7 7 8 7 7 8 7 6 5 5 6 5 4 4 3 3 3 3 4 4 4 3 3 3 3 2 2 3 3 3 3 3 3 3 2 3 3 3 3 3 3 3
9 8 7 6 6 7 7 6 6 5 5 5 5 5 5 4 4 4 3 3 4 4 4 3 3 3 3 3 3 4 4 3 3 2 3 3 3 2 3 3 3 3 3 3
7 7 7 7 6 6 5 5 5 5 5 5 5 5 5 4 4 4 4 4 4 5 4 4 3 3 3 3 4 4 3 3 3 2 3 3 3 3 2 3 3 4 4 4
8 7 7 8 7 6 5 6 5 5 5 5 5 4 5 4 4 4 4 4 5 5 4 4 3 3 3 4 4 4 4 3 3 3 3 3 3 3 3 3 5 5 5 5
7 6 6 5 5 6 6 6 5 5 5 4 4 4 4 4 3 4 4 4 4 4 4 3 3 3 3 3 4 4 4 3 3 3 3 3 3 3 3 4 4 3 4 5
6 6 6 5 5 5 5 4 4 4 4 4 3 3 3 3 3 3 3 3 3 3 3 3 3 3 3 3 4 4 4 3 3 3 3 3 3 4 4 4 4 3 3 3
6 6 5 5 5 5 5 5 5 5 4 4 4 3 3 3 2 2 2 3 4 4 4 4 3 3 3 3 3 3 3 3 3 3 3 3 3 4 4 4 4 4 4 3
5 5 5 6 6 6 6 5 5 5 5 4 4 3 2 2 2 2 2 2 3 3 3 3 2 2 3 3 3 2 2 3 4 4 3 3 3 3 3 4 4 4 4 3
6 6 6 6 7 6 6 5 5 5 4 4 3 2 2 2 3 3 2 2 2 2 2 2 2 3 3 3 3 2 2 2 3 3 3 3 3 3 3 4 4 5 4 3
5 5 6 6 7 6 6 5 5 4 4 2 2 2 2 2 2 2 2 2 3 3 2 1 2 3 3 3 2 2 2 2 2 2 2 2 3 3 3 3 4 4 4 3
4 5 5 6 6 5 5 4 4 3 3 2 2 1 1 1 1 2 2 2 2 1 1 1 2 2 2 2 3 2 2 2 2 2 2 2 3 3 3 3 3 4 3 3
5 5 5 5 5 5 5 4 3 3 3 2 2 2 2 1 1 2 2 2 1 1 2 2 2 2 2 2 3 2 2 2 3 3 2 3 3 3 3 3 3 3 3 3
5 5 5 5 5 5 4 3 3 3 2 2 2 2 2 2 2 2 2 2 1 1 2 2 2 1 1 2 2 2 2 2 2 2 2 2 3 3 3 3 3 3 3 3
5 5 5 5 5 4 4 3 3 2 2 2 2 2 2 2 2 2 2 1 1 2 2 2 1 2 3 2 2 2 2 2 2 2 2 3 3 2 2 3 3 3 3 3
5 5 5 4 4 4 4 4 3 2 2 2 2 2 2 1 2 2 1 1 1 2 1 2 3 3 3 2 2 2 2 2 2 2 2 2 2 2 2 2 2 2 2 3
5 5 4 4 3 3 3 3 2 2 2 1 1 1 1 1 1 1 1 1 1 1 1 2 3 3 2 1 1 2 2 2 1 1 2 2 2 2 2 2 2 2 2 3
5 4 3 4 3 3 2 2 2 2 1 1 1 1 0 0 0 0 0 1 1 1 1 1 1 1 1 1 1 1 1 1 1 1 1 1 2 2 2 2 2 2 2 3
4 3 3 3 2 2 2 2 2 2 1 1 1 1 0 0 0 0 1 1 1 1 1 1 1 0 0 0 0 1 1 1 1 1 1 1 1 1 1 2 2 2 2 3
Wind_Direction
264 268 247 246 240 232 237 250 260 268 272 278 281 273 261 248 242 236 222 208 198 200 200 202 200 194 188 180 177 178 179 189 204 219 210 211 205 212 219 230 236 235 237 237
249 242 250 250 243 235 241 252 257 267 271 277 282 270 250 242 234 232 228 224 216 214 208 209 203 195 185 182 177 179 183 185 181 219 215 217 216 219 219 228 239 237 242 245
251 248 255 243 232 228 233 238 249 256 265 274 271 267 253 243 239 238 235 234 229 223 214 212 204 195 193 184 179 183 185 185 190 203 219 224 220 219 225 226 232 242 240 242
259 250 244 244 183 236 246 248 247 258 266 265 270 275 264 253 247 245 244 242 239 228 212 208 195 187 185 187 184 190 194 189 194 203 218 229 228 232 240 240 227 237 244 246
245 251 260 243 217 227 246 258 247 251 263 272 286 273 251 245 245 251 249 246 236 224 208 199 189 182 184 187 187 192 200 205 200 206 209 220 229 244 245 250 247 240 246 257
239 251 256 255 110 274 257 257 243 257 262 260 254 262 270 251 249 251 244 238 224 207 196 189 181 181 191 191 193 197 203 216 215 212 211 218 230 243 246 244 252 258 250 252
240 249 261 329 104 217 240 295 345 283 269 256 255 280 313 259 240 236 232 227 208 200 194 187 180 193 200 199 203 201 209 219 226 221 224 227 229 237 241 240 250 257 257 250
230 240 248 105 192 234 289 325 308 287 275 263 268 285 283 256 236 228 219 216 206 199 189 181 186 201 207 206 200 199 206 210 218 218 221 227 227 236 242 241 244 254 260 263
239 259 314 250 265 283 302 298 300 287 278 266 266 270 271 258 246 238 231 224 210 201 191 187 193 207 215 201 194 205 210 215 217 217 216 226 231 233 233 235 242 248 254 263
258 263 274 272 272 278 282 285 293 288 273 258 257 261 259 248 238 234 227 220 208 199 199 199 201 210 218 197 206 215 220 221 225 225 224 227 235 240 239 239 243 248 251 258
261 276 288 273 274 286 289 287 289 286 276 267 263 256 248 238 233 231 224 220 213 209 207 206 203 208 209 204 213 224 227 224 228 235 237 237 234 246 251 250 258 261 259 258
271 293 289 293 302 297 286 285 288 286 280 271 262 258 255 248 243 236 227 222 214 209 210 212 208 207 206 211 219 227 230 231 230 230 233 236 238 238 225 244 247 247 261 276
280 295 291 295 301 298 290 291 291 284 275 269 265 260 254 253 247 238 229 222 214 210 210 215 213 214 215 215 221 226 228 229 227 229 233 236 238 245 249 231 225 226 232 252
282 285 282 289 292 300 299 299 295 287 281 276 273 265 255 253 245 230 222 219 215 210 209 213 216 223 223 215 218 223 225 225 231 233 240 240 238 242 249 258 257 248 227 230
281 279 280 292 296 305 307 304 297 291 289 285 278 268 257 249 238 231 222 210 203 206 207 204 212 225 223 213 214 216 218 222 229 236 239 240 236 239 245 252 258 267 277 250
282 278 274 276 290 303 307 302 293 292 295 293 288 278 267 257 240 221 211 203 199 204 206 203 211 221 214 207 208 214 218 213 238 239 238 239 238 241 247 254 261 265 269 283
267 274 281 285 290 294 295 297 295 294 297 293 290 285 267 223 204 201 210 217 215 212 207 204 205 204 203 206 208 213 221 207 213 236 241 249 251 254 260 263 266 271 272 278
265 272 276 279 285 289 292 294 296 295 292 291 289 263 237 219 213 210 206 200 195 200 207 208 200 200 198 204 211 217 218 224 227 237 243 251 262 264 265 268 275 276 280 267
273 273 279 283 283 285 290 294 296 295 295 289 275 263 252 236 220 208 198 195 199 213 220 200 190 206 206 198 206 215 219 224 232 239 246 248 256 264 269 275 280 284 287 287
285 284 284 288 291 292 292 294 296 297 293 284 272 265 258 229 197 200 200 207 221 232 198 186 201 214 212 192 190 210 211 219 231 238 243 251 260 269 274 280 285 291 291 290
290 289 287 289 292 292 289 286 285 285 283 272 254 248 245 236 219 211 207 221 236 203 183 181 202 207 201 177 190 214 216 223 232 241 246 255 263 269 276 281 284 287 288 289
293 291 289 291 291 291 291 285 275 270 267 265 254 238 227 225 228 232 235 244 231 177 190 198 203 186 179 180 202 212 218 224 233 241 248 255 261 267 276 284 287 291 293 292
295 294 293 292 290 290 291 284 271 260 255 257 247 231 227 235 232 230 242 248 221 191 207 203 176 166 181 191 200 208 215 221 230 239 249 255 258 264 273 281 285 287 288 292
297 298 296 296 294 287 286 289 283 271 266 265 253 241 236 236 245 256 267 212 186 190 207 160 159 167 184 203 201 213 224 228 233 242 251 254 255 264 272 279 286 291 294 295
291 292 291 293 289 286 290 297 292 282 280 281 271 261 255 247 251 271 273 211 148 165 172 154 159 169 193 204 206 222 232 237 237 238 244 247 255 262 269 278 287 291 293 294
289 290 289 285 288 290 287 278 274 271 267 271 288 285 286 302 250 218 153 147 135 124 139 151 154 165 193 177 192 223 240 218 213 231 240 245 253 260 273 284 288 291 296 297
289 291 289 286 290 291 284 276 269 265 256 241 268 285 289 72 114 122 123 133 138 134 124 127 139 151 136 145 193 228 241 247 250 255 251 254 260 264 270 276 281 284 288 291